Location: Enborne
(51.3833°N, 1.3667°W)
Time: 12:59:40
(UTC+00:00)

Cosmos 1844 Rocket - Pass Details

Date: 23 January 2021
Orbit: 826 x 843 km, 71.0° (Epoch: 05 March)

Event Time Altitude Azimuth Distance (km) Brightness Sun altitude
Rises 17:17:06 0° 174° (S) 3,388 6.1 -6.0°
Reaches altitude 10° 17:19:49 10° 163° (SSE) 2,457 5.2 -6.4°
Maximum altitude 17:24:36 29° 105° (ESE) 1,493 3.6 -7.1°
Drops below altitude 10° 17:29:23 10° 47° (NE) 2,465 4.5 -7.8°
Enters shadow 17:30:21 - 42° (NE) 2,784 4.8 -7.9°
